EB5ETD Weather Reports


time (UTC)temp
C
wind
direction
speed
KPH
gust
KPH
rain 1hr
cm
rain 24hr
cm
rain mn
cm
humidity
%
barometer
mb
20260506214004 12 27 0.0 1.6 0.00 0.23 0.23 89 1021.0
20260506213504 12 27 0.0 1.6 0.00 0.23 0.23 89 1021.1
20260506212003 12 28 0.0 1.6 0.00 0.23 0.23 89 1020.9
20260506211503 12 28 1.6 1.6 0.00 0.23 0.23 89 1021.0
20260506211005 12 28 0.0 3.2 0.00 0.23 0.23 89 1020.9
20260506210504 12 28 0.0 1.6 0.00 0.23 0.23 90 1021.1
20260506204504 12 28 0.0 1.6 0.00 0.23 0.23 89 1020.5
20260506204004 12 28 0.0 1.6 0.00 0.23 0.23 89 1020.2
20260506203504 12 28 0.0 1.6 0.00 0.23 0.23 88 1020.1
20260506203004 12 28 0.0 1.6 0.00 0.23 0.23 88 1020.1
20260506202504 13 28 1.6 1.6 0.00 0.23 0.23 88 1019.9
20260506202004 12 28 1.6 1.6 0.00 0.23 0.23 88 1020.0
20260506201504 12 28 0.0 0.0 0.00 0.23 0.23 88 1019.8
20260506201004 12 28 1.6 3.2 0.00 0.23 0.23 88 1019.6
20260506200504 12 28 0.0 1.6 0.00 0.23 0.23 88 1019.6
20260506200004 12 28 0.0 0.0 0.00 0.23 0.23 88 1019.5
20260506195503 13 28 0.0 0.0 0.00 0.23 0.23 88 1019.6
20260506195003 13 28 0.0 1.6 0.00 0.23 0.23 88 1019.4
20260506194004 13 28 0.0 3.2 0.00 0.23 0.23 87 1019.3
20260506193504 13 28 0.0 3.2 0.00 0.23 0.23 86 1019.1
20260506192504 13 28 1.6 1.6 0.00 0.23 0.23 86 1019.1
20260506192004 13 28 1.6 4.8 0.00 0.23 0.23 85 1019.0
20260506191504 13 41 1.6 3.2 0.00 0.23 0.23 85 1019.2
20260506191004 13 49 1.6 4.8 0.00 0.23 0.23 85 1019.0
20260506190504 14 58 3.2 4.8 0.00 0.23 0.23 84 1018.9
20260506190003 14 52 3.2 8.0 0.00 0.23 0.23 83 1018.8
20260506185503 14 51 4.8 9.7 0.00 0.23 0.23 83 1018.7
20260506185004 14 38 4.8 9.7 0.00 0.23 0.23 83 1018.7
20260506184004 14 37 3.2 8.0 0.00 0.23 0.23 82 1018.7
20260506183503 15 50 4.8 8.0 0.00 0.23 0.23 81 1018.4
20260506183005 15 44 3.2 4.8 0.00 0.23 0.23 81 1018.3
20260506182504 15 29 3.2 8.0 0.00 0.23 0.23 81 1018.3
20260506181504 15 49 4.8 8.0 0.00 0.23 0.23 81 1018.4
20260506181004 15 50 4.8 9.7 0.00 0.23 0.23 80 1018.2
20260506180503 15 32 4.8 11.3 0.00 0.23 0.23 80 1018.2
20260506180005 15 43 4.8 9.7 0.00 0.23 0.23 79 1018.1
20260506175504 15 51 4.8 8.0 0.00 0.23 0.23 78 1017.9
20260506175004 16 40 4.8 11.3 0.00 0.23 0.23 77 1017.9
20260506174503 16 48 4.8 11.3 0.00 0.23 0.23 76 1018.0
20260506174004 16 48 3.2 4.8 0.00 0.23 0.23 76 1018.0
20260506173503 16 42 3.2 4.8 0.00 0.23 0.23 76 1018.0
20260506173004 16 37 0.0 4.8 0.00 0.23 0.23 76 1018.0
20260506172504 16 38 3.2 8.0 0.00 0.23 0.23 76 1017.9
20260506172004 16 42 4.8 9.7 0.00 0.23 0.23 76 1018.0
20260506171504 16 51 4.8 8.0 0.00 0.23 0.23 76 1018.0
20260506171003 16 48 4.8 8.0 0.00 0.23 0.23 74 1017.9
20260506170504 16 33 1.6 4.8 0.00 0.23 0.23 71 1018.0
20260506170004 16 46 3.2 4.8 0.00 0.23 0.23 71 1017.8
20260506165503 16 43 3.2 8.0 0.00 0.23 0.23 70 1018.0
20260506164503 16 70 1.6 4.8 0.00 0.23 0.23 69 1017.9
20260506164004 16 59 3.2 12.9 0.00 0.23 0.23 70 1017.9
20260506163004 16 85 3.2 9.7 0.00 0.23 0.23 71 1018.0
20260506162504 16 38 3.2 9.7 0.00 0.23 0.23 72 1018.1
20260506162003 16 38 1.6 9.7 0.00 0.23 0.23 72 1017.8
20260506161504 16 45 3.2 9.7 0.00 0.23 0.23 71 1017.8
20260506161004 16 32 3.2 4.8 0.00 0.23 0.23 69 1017.8
20260506160503 16 51 3.2 4.8 0.00 0.23 0.23 68 1017.7
20260506160004 16 54 3.2 9.7 0.00 0.23 0.23 68 1018.0
20260506155004 16 57 4.8 11.3 0.00 0.23 0.23 74 1018.0
20260506154503 16 60 6.4 9.7 0.00 0.23 0.23 73 1017.7
20260506154004 16 236 1.6 9.7 0.00 0.23 0.23 71 1017.7
20260506153504 16 212 4.8 8.0 0.00 0.23 0.23 71 1017.8
20260506153004 16 222 3.2 4.8 0.00 0.23 0.23 70 1017.8
20260506152504 16 251 1.6 3.2 0.00 0.23 0.23 69 1018.0
20260506152004 16 258 1.6 3.2 0.00 0.23 0.23 70 1017.8
20260506151503 16 231 0.0 4.8 0.00 0.23 0.23 70 1018.2
20260506151004 16 243 1.6 4.8 0.00 0.23 0.23 70 1018.0
20260506150504 16 56 3.2 8.0 0.00 0.23 0.23 69 1017.9
20260506150004 17 255 0.0 3.2 0.00 0.23 0.23 68 1017.7
20260506145504 17 46 1.6 4.8 0.00 0.23 0.23 68 1017.9
20260506145004 16 250 0.0 4.8 0.00 0.23 0.23 72 1017.8
20260506144503 16 349 3.2 9.7 0.00 0.23 0.23 73 1018.3
20260506144004 15 294 1.6 4.8 0.00 0.23 0.23 75 1018.3
20260506143004 15 50 4.8 9.7 0.00 0.23 0.23 76 1018.7
20260506142004 15 33 3.2 8.0 0.00 0.23 0.23 77 1018.9
20260506141503 15 48 3.2 8.0 0.00 0.23 0.23 78 1019.1
20260506141004 14 48 4.8 12.9 0.03 0.23 0.23 78 1019.0
20260506140504 15 74 1.6 4.8 0.08 0.23 0.23 80 1019.1
20260506140004 14 57 1.6 9.7 0.10 0.23 0.23 83 1019.2
20260506135504 13 17 4.8 9.7 0.15 0.23 0.23 86 1019.5
20260506135004 13 49 3.2 9.7 0.23 0.23 0.23 89 1019.5
20260506134504 13 39 4.8 11.3 0.23 0.23 0.23 90 1019.6
20260506134003 13 93 1.6 8.0 0.23 0.23 0.23 90 1019.6
20260506133504 13 47 3.2 8.0 0.23 0.23 0.23 91 1019.6
20260506133004 13 49 4.8 9.7 0.23 0.23 0.23 90 1019.8
20260506132004 13 56 3.2 8.0 0.23 0.23 0.23 89 1019.6
20260506131504 13 49 3.2 8.0 0.23 0.23 0.23 88 1020.0
20260506131003 13 44 3.2 8.0 0.20 0.20 0.20 87 1019.9
20260506130503 13 59 3.2 8.0 0.15 0.15 0.15 85 1019.8
20260506125504 14 40 4.8 9.7 0.08 0.08 0.08 79 1019.7
20260506125004 15 52 6.4 14.5 0.00 0.00 0.00 76 1019.5
20260506124004 16 41 9.7 20.9 0.00 0.00 0.00 69 1018.7
20260506123004 17 34 8.0 16.1 0.00 0.00 0.00 68 1018.5
20260506122504 17 39 9.7 20.9 0.00 0.00 0.00 67 1018.5
20260506121504 17 40 8.0 19.3 0.00 0.00 0.00 64 1018.3
20260506121004 17 25 8.0 16.1 0.00 0.00 0.00 65 1018.3
20260506120504 17 55 4.8 11.3 0.00 0.00 0.00 66 1018.5
20260506115504 17 30 3.2 9.7 0.00 0.00 0.00 66 1018.5
20260506115004 17 42 4.8 9.7 0.00 0.00 0.00 64 1018.4
20260506114504 17 28 3.2 9.7 0.00 0.00 0.00 64 1018.5
20260506114005 17 112 3.2 4.8 0.00 0.00 0.00 62 1018.5
20260506113504 17 38 3.2 11.3 0.00 0.00 0.00 64 1018.7
20260506113004 17 65 4.8 14.5 0.00 0.00 0.00 64 1018.5
20260506112504 18 37 4.8 9.7 0.00 0.00 0.00 62 1018.6
20260506111504 17 48 4.8 9.7 0.00 0.00 0.00 65 1018.9
20260506111004 16 69 4.8 9.7 0.00 0.00 0.00 67 1019.2
20260506110504 16 38 6.4 12.9 0.00 0.00 0.00 66 1019.2
20260506110005 16 41 3.2 14.5 0.00 0.00 0.00 66 1019.2
20260506105504 16 40 4.8 11.3 0.00 0.00 0.00 67 1019.2
20260506105004 16 45 3.2 9.7 0.00 0.00 0.00 67 1019.0
20260506104504 16 36 8.0 12.9 0.00 0.00 0.00 67 1019.2
20260506102504 17 69 8.0 12.9 0.00 0.00 0.00 65 1019.0
20260506102005 18 66 1.6 8.0 0.00 0.00 0.00 62 1018.8
20260506101504 17 48 4.8 12.9 0.00 0.00 0.00 65 1019.1
20260506101004 16 29 4.8 8.0 0.00 0.00 0.00 67 1019.2
20260506100504 16 58 8.0 12.9 0.00 0.00 0.00 68 1019.4
20260506100004 16 50 9.7 14.5 0.00 0.00 0.00 69 1019.4
20260506095503 15 30 6.4 12.9 0.00 0.00 0.00 72 1019.9
20260506094504 15 45 4.8 14.5 0.00 0.00 0.00 71 1019.8
20260506094004 16 45 8.0 14.5 0.00 0.00 0.00 69 1019.7
20260506093503 15 37 4.8 11.3 0.00 0.00 0.00 72 1019.8
20260506093004 15 28 4.8 12.9 0.00 0.00 0.00 73 1019.9
20260506092504 15 39 4.8 14.5 0.00 0.00 0.00 72 1019.8
20260506091504 15 39 3.2 12.9 0.00 0.00 0.00 73 1019.6
20260506091004 15 25 4.8 12.9 0.00 0.00 0.00 74 1019.6
20260506090505 15 51 6.4 12.9 0.00 0.00 0.00 74 1019.4
20260506090004 15 48 8.0 12.9 0.00 0.00 0.00 74 1019.6
20260506085504 15 24 4.8 16.1 0.00 0.00 0.00 75 1019.6
20260506084504 15 34 3.2 12.9 0.00 0.00 0.00 75 1019.4
20260506083504 14 44 6.4 12.9 0.00 0.00 0.00 78 1019.6
20260506083004 15 47 8.0 12.9 0.00 0.00 0.00 76 1019.7
20260506082503 15 47 9.7 14.5 0.00 0.00 0.00 78 1019.6
20260506082003 15 42 4.8 14.5 0.00 0.00 0.00 78 1019.5
20260506081503 14 22 4.8 9.7 0.00 0.00 0.00 80 1019.6
20260506081004 15 48 8.0 12.9 0.00 0.00 0.00 79 1019.5
20260506080506 14 39 8.0 14.5 0.00 0.00 0.00 81 1019.6
20260506073504 14 60 3.2 9.7 0.00 0.00 0.00 83 1019.5
20260506073004 14 33 1.6 3.2 0.00 0.00 0.00 82 1019.7
20260506072504 14 57 1.6 8.0 0.00 0.00 0.00 82 1019.5
20260506071504 14 45 3.2 11.3 0.00 0.00 0.00 84 1019.6
20260506071004 14 71 3.2 9.7 0.00 0.00 0.00 84 1019.8
20260506070503 13 74 4.8 9.7 0.00 0.00 0.00 84 1019.6
20260506062003 13 75 1.6 3.2 0.00 0.00 0.00 85 1020.1
20260506061504 12 56 1.6 4.8 0.00 0.00 0.00 86 1020.2
20260506061004 12 257 0.0 1.6 0.00 0.00 0.00 86 1020.2
20260506060504 12 257 0.0 1.6 0.00 0.00 0.00 86 1020.2
20260506051004 11 257 0.0 1.6 0.00 0.00 0.00 86 1020.0
20260506050505 11 257 0.0 1.6 0.00 0.00 0.00 86 1020.1
20260506045004 11 257 0.0 0.0 0.00 0.00 0.00 85 1019.9
20260506044004 11 257 0.0 1.6 0.00 0.00 0.00 85 1019.9
20260506043504 11 257 1.6 1.6 0.00 0.00 0.00 85 1020.0
20260506043004 11 257 0.0 1.6 0.00 0.00 0.00 86 1020.0
20260506042504 11 257 0.0 1.6 0.00 0.00 0.00 87 1019.9
20260506042004 11 257 0.0 0.0 0.00 0.00 0.00 87 1019.8
20260506041504 11 257 0.0 0.0 0.00 0.00 0.00 87 1019.9
20260506040503 11 257 0.0 0.0 0.00 0.00 0.00 86 1019.9
20260506040004 11 257 0.0 0.0 0.00 0.00 0.00 86 1019.9
20260506035504 11 257 0.0 1.6 0.00 0.00 0.00 86 1020.0
20260506035004 11 257 0.0 1.6 0.00 0.00 0.00 86 1020.1
20260506034504 11 257 0.0 3.2 0.00 0.00 0.00 86 1020.2
20260506034003 10 257 0.0 0.0 0.00 0.00 0.00 85 1020.2
20260506033504 10 257 1.6 1.6 0.00 0.00 0.00 85 1020.5
20260506032003 11 258 0.0 1.6 0.00 0.00 0.00 86 1020.2
20260506031504 11 262 1.6 3.2 0.00 0.00 0.00 86 1020.1
20260506031003 11 262 1.6 1.6 0.00 0.00 0.00 86 1020.3
20260506030504 10 347 1.6 4.8 0.00 0.00 0.00 86 1020.2
20260506025504 11 240 0.0 1.6 0.00 0.00 0.00 86 1020.4
20260506024504 11 246 1.6 3.2 0.00 0.00 0.00 85 1020.4
20260506024004 11 231 0.0 4.8 0.00 0.00 0.00 85 1020.3
20260506023503 10 244 1.6 3.2 0.00 0.00 0.00 86 1020.3
20260506023004 10 283 1.6 3.2 0.00 0.00 0.00 86 1020.3
20260506022503 11 235 1.6 1.6 0.00 0.00 0.00 86 1020.5
20260506022004 11 196 1.6 3.2 0.00 0.00 0.00 86 1020.4
20260506021003 11 191 0.0 1.6 0.00 0.00 0.00 85 1020.3
20260506020504 11 189 0.0 0.0 0.00 0.00 0.00 84 1020.3
20260506020004 11 189 0.0 1.6 0.00 0.00 0.00 84 1020.3
20260506015504 11 193 0.0 1.6 0.00 0.00 0.00 83 1020.3
20260506015004 11 195 0.0 1.6 0.00 0.00 0.00 83 1020.1
20260506014503 11 232 0.0 3.2 0.00 0.00 0.00 84 1020.1
20260506014004 12 224 0.0 1.6 0.00 0.00 0.00 84 1020.2
20260506013503 12 243 0.0 3.2 0.00 0.00 0.00 84 1020.2
20260506013004 12 203 1.6 3.2 0.00 0.00 0.00 84 1020.2
20260506012503 12 24 1.6 3.2 0.00 0.00 0.00 85 1020.4
20260506012004 11 13 0.0 1.6 0.00 0.00 0.00 85 1020.3
20260506011505 11 12 0.0 0.0 0.00 0.00 0.00 85 1020.4
20260506011004 11 12 0.0 0.0 0.00 0.00 0.00 85 1020.4
20260506010504 11 12 0.0 0.0 0.00 0.00 0.00 85 1020.5
20260506005504 11 12 1.6 1.6 0.00 0.00 0.00 84 1020.4
20260506004504 12 256 0.0 1.6 0.00 0.00 0.00 82 1020.4
20260506004004 12 256 0.0 1.6 0.00 0.00 0.00 81 1020.3
20260506003503 12 256 0.0 1.6 0.00 0.00 0.00 80 1020.2
20260506003004 12 255 0.0 1.6 0.00 0.00 0.00 79 1020.5
20260506002504 12 254 0.0 1.6 0.00 0.00 0.00 79 1020.5
20260506002004 12 22 0.0 1.6 0.00 0.00 0.00 78 1020.5
20260506001504 12 28 0.0 1.6 0.00 0.00 0.00 77 1020.4
20260506000504 12 40 1.6 3.2 0.00 0.00 0.00 76 1020.7
20260506000004 12 44 0.0 3.2 0.00 0.00 0.00 75 1020.5
20260505235504 12 253 1.6 1.6 0.00 0.00 0.00 75 1020.5
20260505235004 12 252 0.0 1.6 0.00 0.00 0.00 75 1020.5
20260505234503 12 252 0.0 1.6 0.00 0.00 0.00 74 1020.7
20260505234004 13 235 1.6 3.2 0.00 0.00 0.00 74 1020.3
20260505233003 12 208 0.0 1.6 0.00 0.00 0.00 71 1020.5
20260505232504 12 208 0.0 3.2 0.00 0.00 0.00 70 1020.5
20260505232003 13 233 1.6 3.2 0.00 0.00 0.00 69 1020.3
20260505231505 13 188 1.6 4.8 0.00 0.00 0.00 68 1020.0
20260505231004 13 226 1.6 3.2 0.00 0.00 0.00 68 1020.1
20260505230504 13 235 0.0 1.6 0.00 0.00 0.00 68 1020.0
20260505230004 13 235 0.0 3.2 0.00 0.00 0.00 67 1020.1
20260505225004 13 220 3.2 4.8 0.00 0.00 0.00 65 1019.8
20260505224004 14 46 3.2 4.8 0.00 0.00 0.00 65 1019.8
20260505223504 14 58 0.0 8.0 0.00 0.00 0.00 64 1019.8
20260505223003 13 84 3.2 4.8 0.00 0.00 0.00 66 1019.9
20260505222504 14 41 4.8 9.7 0.00 0.00 0.00 65 1019.9
20260505222004 14 54 3.2 8.0 0.00 0.00 0.00 65 1019.4
20260505221003 13 227 3.2 4.8 0.00 0.00 0.00 63 1019.8
20260505220504 13 212 0.0 1.6 0.00 0.00 0.00 67 1019.5
20260505220004 13 212 1.6 3.2 0.00 0.00 0.00 67 1019.6
20260505215503 13 204 1.6 3.2 0.00 0.00 0.00 66 1019.7
20260505215004 14 218 1.6 3.2 0.00 0.00 0.00 66 1019.7
20260505214503 14 188 1.6 4.8 0.00 0.00 0.00 66 1019.7